Regional Weather Roundup
Issued by NWS State College, PA

Home | Current Version | Previous Version | Text Only | Print | Product List | Glossary On
Versions: 1 2 3 4 5 6 7 8 9 10 11 12 13 14 15 16 17 18 19 20 21 22 23 24 25 26 27 28 29 30 31 32 33 34 35 36 37 38 39 40 41 42 43 44 45 46 47 48 49 50
000
ASUS41 KCTP 071210
RWRCTP

REGIONAL WEATHER ROUNDUP
NATIONAL WEATHER SERVICE STATE COLLEGE PA
700 AM EST SUN MAR 07 2021

Note: "fair" indicates few or no clouds below 12,000 feet with no
significant weather and/or obstructions to visibility.

* = STATION THAT DOES NOT REPORT PRECIPITATION /E.G. RAIN...SNOW...ETC/
    THUNDER OR FOG.

PAZ002>004-007>009-013>016-020>023-029>032-071300-
WESTERN PENNSYLVANIA

CITY           SKY/WX    TMP DP  RH WIND       PRES   REMARKS
ERIE           CLEAR     15   9  76 CALM      30.37R
MEADVILLE      CLEAR     14  10  84 CALM      30.31R
FRANKLIN       CLEAR     11   8  88 W3        30.30R
NEW CASTLE     FAIR      12   9  87 CALM        N/A
BEAVER COUNTY  CLEAR     21  15  79 NE3       30.31R
BUTLER         CLEAR     12  10  92 NE3       30.32R
PITTSBURGH INT PTCLDY    17  11  77 CALM      30.30R
PITTSBURGH     CLEAR     22  15  75 NE3       30.30R
INDIANA*       CLEAR     12  10  92 CALM      30.34R
LATROBE        CLEAR     14  12  92 CALM      30.32R
WASHINGTON CO* CLEAR     14  12  92 CALM      30.34R
$$

PAZ004>006-010>012-017>019-024>028-033>037-041-042-045-046-049>053-071300-
CENTRAL PENNSYLVANIA

CITY           SKY/WX    TMP DP  RH WIND       PRES   REMARKS
BRADFORD       CLEAR      4  -1  80 CALM      30.23R
ST MARYS       SUNNY     12  10  92 CALM      30.28R
DUBOIS         CLEAR     12   9  87 SW3       30.26R
CLEARFIELD     CLEAR     13  11  92 SW3       30.29R
JOHNSTOWN      CLEAR     17   9  70 NW5       30.22R WCI  10
SOMERSET       FAIR      14   9  79 CALM      30.24R
ALTOONA        CLEAR     18  10  71 CALM      30.29R
STATE COLLEGE  CLEAR     18  12  79 CALM      30.30R
REEDSVILLE     FAIR      19  14  79 CALM      30.32R
WELLSBORO      CLOUDY    16  10  79 NW6       30.23R WCI   7
WILLIAMSPORT   CLEAR     23  14  68 W8        30.33R WCI  14
SELINSGROVE    CLEAR     22  13  68 NW7       30.33R WCI  13
FT INDIANTOWN  CLEAR     26  12  54 NW7       30.31R
CAPITAL CITY   CLEAR     23  13  65 W6        30.34R
HARRISBURG     CLEAR     26  14  60 NW12      30.33R
YORK           CLEAR     22  13  68 W6        30.32R WCI  14
$$

PAZ038>040-043-044-047-048-054-055-060>062-067>071-071300-
EASTERN PENNSYLVANIA

CITY           SKY/WX    TMP DP  RH WIND       PRES   REMARKS
TOWANDA        MOSUNNY   18  12  79 SW6       30.32R WCI   9
SCRANTON       CLEAR     23  12  62 CALM      30.27R
MOUNT POCONO   CLEAR     14   8  77 NW5       30.19R WCI   6
HAZLETON       FAIR      21  12  68 CALM      30.26R
LEHIGHTON      FAIR      18  16  93 CALM      30.32R
ALLENTOWN      CLEAR     24  14  65 N3        30.31R
QN CITY/ALNTWN FAIR      25  16  68 CALM      30.32R
QUAKERTOWN*    SUNNY     19  14  79 CALM      30.30S
PERKASIE*      SUNNY     23  14  68 N3        30.31R
DOYLESTOWN     CLEAR     24  14  65 CALM      30.30R
READING        CLEAR     27  17  66 W7        30.31R
LANCASTER      CLEAR     23  14  68 W6        30.32R
COATESVILLE    SUNNY     23  18  80 NW3       30.31R
WEST CHESTER   SUNNY     27  18  69 CALM      30.31R
POTTSTOWN      PTCLDY    20  14  77 CALM      30.33R
BLUE BELL      CLEAR     22  17  83 CALM      30.32R
NORTH PHILA    CLEAR     27  16  63 CALM      30.34R
PHILADELPHIA   PTCLDY    29  14  53 NW5       30.34R
$$



USA.gov is the U.S. government's official web portal to all federal, state and local government web resources and services.